RYR5DF EDLV-EGPH

Flight info

Callsign RYR5DF
Flight time 1h 15m
Altitude 40000
Route SONEB2R SONEB P64 TENLI L602 AMGOD DCT GODOS DCT AGPED
Aircraft B38M/M-SDE1FGHILORVWXY/HB1

Departure

Time 2026-04-21 16:41
Airport Weeze (Niederrhein) Airport (EDLV)

Arrival

Time 2026-04-21 17:56
Airport Edinburgh Airport (EGPH)
Time Latitude Longitude Altitude Speed Heading
2026-04-21 16:28 51.59995 6.14867 115 ft 1 kts 92°
2026-04-21 16:32 51.59996 6.14839 112 ft 4 kts 99°
2026-04-21 16:33 51.60005 6.14805 111 ft 4 kts 149°
2026-04-21 16:33 51.60027 6.14801 111 ft 4 kts 196°
2026-04-21 16:33 51.60043 6.14824 114 ft 4 kts 257°
2026-04-21 16:33 51.60044 6.14856 114 ft 0 kts 271°
2026-04-21 16:37 51.60044 6.14847 114 ft 3 kts 271°
2026-04-21 16:37 51.60046 6.14754 113 ft 15 kts 272°
2026-04-21 16:37 51.60047 6.14533 112 ft 23 kts 271°
2026-04-21 16:38 51.60053 6.14255 114 ft 27 kts 272°
2026-04-21 16:38 51.60060 6.13959 116 ft 27 kts 271°
2026-04-21 16:38 51.60067 6.13646 113 ft 28 kts 271°
2026-04-21 16:38 51.60073 6.13342 113 ft 28 kts 272°
2026-04-21 16:39 51.60078 6.13132 112 ft 29 kts 272°
2026-04-21 16:39 51.60085 6.12839 110 ft 27 kts 272°
2026-04-21 16:39 51.60090 6.12589 112 ft 14 kts 272°
2026-04-21 16:39 51.60099 6.12473 112 ft 6 kts 307°
2026-04-21 16:40 51.60147 6.12457 112 ft 8 kts
2026-04-21 16:40 51.60212 6.12461 115 ft 10 kts
2026-04-21 16:40 51.60274 6.12473 116 ft 6 kts 39°
2026-04-21 16:40 51.60282 6.12586 113 ft 20 kts 92°
2026-04-21 16:41 51.60268 6.13187 115 ft 86 kts 93°
2026-04-21 16:41 51.60238 6.14458 114 ft 139 kts 93°
2026-04-21 16:41 51.60166 6.16094 505 ft 152 kts 91°
2026-04-21 16:41 51.60108 6.17856 1154 ft 154 kts 82°
2026-04-21 16:42 51.60163 6.19550 1844 ft 156 kts 83°
2026-04-21 16:42 51.60358 6.21356 2365 ft 173 kts 72°
2026-04-21 16:42 51.60705 6.23400 2898 ft 201 kts 72°
2026-04-21 16:42 51.61090 6.25680 3495 ft 221 kts 72°
2026-04-21 16:43 51.61510 6.28138 4100 ft 241 kts 72°
2026-04-21 16:43 51.61976 6.30823 4787 ft 254 kts 72°
2026-04-21 16:43 51.62455 6.33573 5759 ft 257 kts 73°
2026-04-21 16:43 51.63086 6.36259 6712 ft 258 kts 54°
2026-04-21 16:44 51.64404 6.38194 7596 ft 260 kts 29°
2026-04-21 16:44 51.66133 6.39144 8469 ft 266 kts
2026-04-21 16:44 51.67991 6.38998 9351 ft 273 kts 351°
2026-04-21 16:44 51.69884 6.38494 10193 ft 277 kts 353°
2026-04-21 16:45 51.71823 6.38024 10797 ft 290 kts 354°
2026-04-21 16:45 51.73875 6.37546 11305 ft 304 kts 354°
2026-04-21 16:45 51.76006 6.37044 12001 ft 312 kts 354°
2026-04-21 16:45 51.78137 6.36528 12867 ft 316 kts 354°
2026-04-21 16:46 51.80335 6.35993 13716 ft 322 kts 354°
2026-04-21 16:46 51.82566 6.35449 14540 ft 327 kts 354°
2026-04-21 16:46 51.84834 6.34894 15357 ft 331 kts 354°
2026-04-21 16:46 51.87123 6.34333 16208 ft 335 kts 354°
2026-04-21 16:47 51.89440 6.33764 17030 ft 340 kts 354°
2026-04-21 16:47 51.91803 6.33183 17819 ft 345 kts 354°
2026-04-21 16:47 51.94192 6.32594 18609 ft 349 kts 354°
2026-04-21 16:47 51.96612 6.31998 19254 ft 354 kts 354°
2026-04-21 16:48 51.99061 6.31392 19910 ft 359 kts 355°
2026-04-21 16:48 52.01546 6.30777 20549 ft 363 kts 355°
2026-04-21 16:48 52.04069 6.30151 21187 ft 367 kts 355°
2026-04-21 16:48 52.06611 6.29520 21821 ft 371 kts 355°
2026-04-21 16:49 52.09175 6.28882 22440 ft 376 kts 355°
2026-04-21 16:49 52.11776 6.28235 23066 ft 380 kts 355°
2026-04-21 16:49 52.14374 6.27587 23677 ft 384 kts 355°
2026-04-21 16:49 52.17029 6.26923 24217 ft 387 kts 355°
2026-04-21 16:50 52.19704 6.26224 24769 ft 391 kts 352°
2026-04-21 16:50 52.22270 6.24659 25360 ft 399 kts 332°
2026-04-21 16:50 52.24443 6.21815 25927 ft 405 kts 313°
2026-04-21 16:50 52.26009 6.17975 26481 ft 409 kts 295°
2026-04-21 16:51 52.27043 6.13633 27017 ft 412 kts 291°
2026-04-21 16:51 52.28037 6.09233 27541 ft 415 kts 290°
2026-04-21 16:51 52.29019 6.04786 28089 ft 416 kts 290°
2026-04-21 16:51 52.29991 6.00311 28607 ft 419 kts 289°
2026-04-21 16:52 52.30959 5.95816 29143 ft 421 kts 289°
2026-04-21 16:52 52.31931 5.91289 29634 ft 423 kts 290°
2026-04-21 16:52 52.32908 5.86724 30114 ft 426 kts 289°
2026-04-21 16:52 52.33891 5.82122 30544 ft 428 kts 289°
2026-04-21 16:53 52.34859 5.77577 30922 ft 431 kts 290°
2026-04-21 16:53 52.35844 5.72940 31344 ft 432 kts 290°
2026-04-21 16:53 52.36843 5.68231 31785 ft 432 kts 290°
2026-04-21 16:53 52.37814 5.63642 32211 ft 433 kts 290°
2026-04-21 16:54 52.38798 5.58979 32643 ft 433 kts 290°
2026-04-21 16:54 52.39779 5.54316 33058 ft 434 kts 290°
2026-04-21 16:54 52.40763 5.49631 33452 ft 435 kts 290°
2026-04-21 16:54 52.41747 5.44932 33845 ft 437 kts 290°
2026-04-21 16:55 52.42732 5.40222 34209 ft 438 kts 290°
2026-04-21 16:55 52.43721 5.35480 34510 ft 440 kts 290°
2026-04-21 16:55 52.44709 5.30733 34797 ft 442 kts 289°
2026-04-21 16:55 52.45702 5.25949 35158 ft 442 kts 289°
2026-04-21 16:56 52.46687 5.21192 35524 ft 441 kts 289°
2026-04-21 16:56 52.47675 5.16412 35883 ft 441 kts 289°
2026-04-21 16:56 52.48656 5.11651 36231 ft 441 kts 289°
2026-04-21 16:56 52.49635 5.06888 36577 ft 441 kts 290°
2026-04-21 16:57 52.50614 5.02115 36937 ft 440 kts 289°
2026-04-21 16:57 52.51589 4.97348 37272 ft 440 kts 289°
2026-04-21 16:57 52.52560 4.92595 37614 ft 440 kts 289°
2026-04-21 16:57 52.53541 4.87831 37926 ft 440 kts 291°
2026-04-21 16:58 52.54958 4.83409 38257 ft 437 kts 306°
2026-04-21 16:58 52.56686 4.79312 38535 ft 438 kts 304°
2026-04-21 16:58 52.58402 4.75160 38796 ft 438 kts 304°
2026-04-21 16:58 52.60128 4.71031 39063 ft 438 kts 305°
2026-04-21 16:59 52.61862 4.66908 39297 ft 438 kts 305°
2026-04-21 16:59 52.63601 4.62784 39513 ft 438 kts 305°
2026-04-21 16:59 52.65315 4.58714 39728 ft 438 kts 305°
2026-04-21 16:59 52.67076 4.54530 39935 ft 438 kts 305°
2026-04-21 17:00 52.68811 4.50400 40133 ft 438 kts 305°
2026-04-21 17:00 52.70544 4.46265 40296 ft 439 kts 305°
2026-04-21 17:00 52.71693 4.43518 40338 ft 439 kts 305°
2026-04-21 17:01 52.75568 4.33667 40335 ft 437 kts 298°
2026-04-21 17:01 52.78497 4.24873 40338 ft 437 kts 300°
2026-04-21 17:02 52.81457 4.16175 40342 ft 437 kts 300°
2026-04-21 17:02 52.84435 4.07421 40345 ft 437 kts 300°
2026-04-21 17:03 52.87412 3.98640 40347 ft 437 kts 300°
2026-04-21 17:03 52.90382 3.89851 40346 ft 436 kts 300°
2026-04-21 17:04 52.93342 3.81059 40350 ft 437 kts 300°
2026-04-21 17:04 52.96342 3.72294 40340 ft 437 kts 306°
2026-04-21 17:04 52.98373 3.68595 40342 ft 434 kts 321°
2026-04-21 17:05 53.00895 3.65802 40359 ft 436 kts 328°
2026-04-21 17:05 53.06089 3.60670 40355 ft 438 kts 329°
2026-04-21 17:06 53.11384 3.55651 40354 ft 438 kts 330°
2026-04-21 17:06 53.16696 3.50673 40357 ft 438 kts 330°
2026-04-21 17:07 53.21142 3.46502 40354 ft 438 kts 330°
2026-04-21 17:07 53.24437 3.42683 40343 ft 436 kts 314°
2026-04-21 17:07 53.26313 3.38730 40372 ft 436 kts 304°
2026-04-21 17:08 53.29741 3.30304 40364 ft 439 kts 304°
2026-04-21 17:08 53.33075 3.21766 40365 ft 439 kts 303°
2026-04-21 17:09 53.38021 3.08872 40374 ft 439 kts 303°
2026-04-21 17:09 53.41311 3.00249 40375 ft 439 kts 303°
2026-04-21 17:10 53.44596 2.91604 40377 ft 439 kts 303°
2026-04-21 17:10 53.47872 2.82957 40377 ft 439 kts 303°
2026-04-21 17:11 53.51147 2.74285 40382 ft 440 kts 303°
2026-04-21 17:11 53.54421 2.65581 40381 ft 441 kts 303°
2026-04-21 17:12 53.57689 2.56863 40387 ft 441 kts 303°
2026-04-21 17:12 53.60958 2.48116 40388 ft 441 kts 303°
2026-04-21 17:13 53.64192 2.39428 40393 ft 441 kts 303°
2026-04-21 17:13 53.67448 2.30652 40399 ft 441 kts 302°
2026-04-21 17:14 53.70699 2.21857 40402 ft 442 kts 302°
2026-04-21 17:14 53.73945 2.13047 40402 ft 442 kts 302°
2026-04-21 17:15 53.77184 2.04224 40405 ft 442 kts 302°
2026-04-21 17:15 53.80427 1.95360 40409 ft 443 kts 302°
2026-04-21 17:16 53.83658 1.86493 40409 ft 443 kts 302°
2026-04-21 17:16 53.86888 1.77600 40422 ft 443 kts 302°
2026-04-21 17:17 53.90109 1.68700 40414 ft 443 kts 302°
2026-04-21 17:17 53.93326 1.59779 40417 ft 444 kts 302°
2026-04-21 17:18 53.96539 1.50836 40430 ft 444 kts 302°
2026-04-21 17:18 53.99746 1.41877 40412 ft 444 kts 302°
2026-04-21 17:19 54.02953 1.32888 40428 ft 444 kts 302°
2026-04-21 17:19 54.06157 1.23874 40427 ft 444 kts 302°
2026-04-21 17:20 54.09330 1.14911 40433 ft 444 kts 302°
2026-04-21 17:20 54.12522 1.05864 40428 ft 444 kts 302°
2026-04-21 17:21 54.15689 0.96857 40432 ft 445 kts 302°
2026-04-21 17:21 54.18865 0.87790 40432 ft 445 kts 301°
2026-04-21 17:22 54.22038 0.78696 40435 ft 445 kts 301°
2026-04-21 17:22 54.25200 0.69601 40432 ft 445 kts 301°
2026-04-21 17:23 54.28336 0.60551 40437 ft 445 kts 301°
2026-04-21 17:23 54.31480 0.51439 40436 ft 445 kts 301°
2026-04-21 17:24 54.34628 0.42284 40446 ft 445 kts 301°
2026-04-21 17:24 54.37767 0.33124 40442 ft 445 kts 301°
2026-04-21 17:25 54.40900 0.23942 40448 ft 446 kts 301°
2026-04-21 17:25 54.44022 0.14758 40446 ft 446 kts 301°
2026-04-21 17:26 54.46616 0.07103 40450 ft 445 kts 301°
2026-04-21 17:26 54.49728 -0.02113 40362 ft 445 kts 301°
2026-04-21 17:27 54.52834 -0.11343 40456 ft 446 kts 301°
2026-04-21 17:27 54.55931 -0.20587 40456 ft 445 kts 301°
2026-04-21 17:28 54.59018 -0.29834 40458 ft 445 kts 301°
2026-04-21 17:28 54.62098 -0.39095 40462 ft 445 kts 301°
2026-04-21 17:29 54.65173 -0.48377 40466 ft 445 kts 301°
2026-04-21 17:29 54.68226 -0.57627 40464 ft 445 kts 301°
2026-04-21 17:30 54.71289 -0.66942 40467 ft 446 kts 301°
2026-04-21 17:30 54.74344 -0.76270 40469 ft 446 kts 300°
2026-04-21 17:31 54.77401 -0.85640 40402 ft 444 kts 300°
2026-04-21 17:31 54.78910 -0.90277 39846 ft 442 kts 300°
2026-04-21 17:31 54.80421 -0.94932 39204 ft 443 kts 300°
2026-04-21 17:32 54.81938 -0.99611 38324 ft 447 kts 300°
2026-04-21 17:32 54.83463 -1.04328 37500 ft 448 kts 300°
2026-04-21 17:32 54.84965 -1.08980 36805 ft 448 kts 300°
2026-04-21 17:32 54.86487 -1.13704 36083 ft 448 kts 300°
2026-04-21 17:33 54.88005 -1.18426 35324 ft 449 kts 300°
2026-04-21 17:33 54.89528 -1.23168 34577 ft 450 kts 300°
2026-04-21 17:33 54.91049 -1.27921 33646 ft 451 kts 300°
2026-04-21 17:33 54.92572 -1.32685 32934 ft 448 kts 299°
2026-04-21 17:34 54.94073 -1.37389 32422 ft 441 kts 299°
2026-04-21 17:34 54.95553 -1.42036 31887 ft 436 kts 299°
2026-04-21 17:34 54.97015 -1.46630 31319 ft 432 kts 299°
2026-04-21 17:34 54.98463 -1.51190 30760 ft 429 kts 299°
2026-04-21 17:35 54.99901 -1.55726 30130 ft 426 kts 298°
2026-04-21 17:35 55.01329 -1.60236 29527 ft 422 kts 298°
2026-04-21 17:35 55.02738 -1.64696 28996 ft 418 kts 298°
2026-04-21 17:35 55.04116 -1.69067 28459 ft 414 kts 298°
2026-04-21 17:36 55.05494 -1.73444 27941 ft 410 kts 298°
2026-04-21 17:36 55.06861 -1.77794 27413 ft 407 kts 298°
2026-04-21 17:36 55.08218 -1.82120 26893 ft 405 kts 298°
2026-04-21 17:36 55.09566 -1.86425 26377 ft 403 kts 298°
2026-04-21 17:37 55.10907 -1.90717 25848 ft 405 kts 298°
2026-04-21 17:37 55.12276 -1.95043 25270 ft 409 kts 300°
2026-04-21 17:37 55.13699 -1.99360 24680 ft 409 kts 300°
2026-04-21 17:37 55.15116 -2.03657 24211 ft 407 kts 300°
2026-04-21 17:38 55.16523 -2.07931 23636 ft 406 kts 300°
2026-04-21 17:38 55.17929 -2.12213 23066 ft 404 kts 300°
2026-04-21 17:38 55.19320 -2.16455 22535 ft 401 kts 300°
2026-04-21 17:38 55.20703 -2.20677 22032 ft 398 kts 300°
2026-04-21 17:39 55.22075 -2.24873 21537 ft 396 kts 300°
2026-04-21 17:39 55.23436 -2.29045 21039 ft 394 kts 300°
2026-04-21 17:39 55.24794 -2.33215 20560 ft 392 kts 300°
2026-04-21 17:39 55.26139 -2.37354 20083 ft 390 kts 300°
2026-04-21 17:40 55.27481 -2.41486 19606 ft 388 kts 300°
2026-04-21 17:40 55.28810 -2.45590 19151 ft 387 kts 300°
2026-04-21 17:40 55.30138 -2.49694 18662 ft 385 kts 300°
2026-04-21 17:40 55.31457 -2.53778 18156 ft 383 kts 300°
2026-04-21 17:41 55.32764 -2.57835 17686 ft 380 kts 301°
2026-04-21 17:41 55.34043 -2.61807 17245 ft 377 kts 301°
2026-04-21 17:41 55.35332 -2.65820 16792 ft 374 kts 300°
2026-04-21 17:41 55.36608 -2.69798 16341 ft 371 kts 300°
2026-04-21 17:42 55.37871 -2.73742 15892 ft 369 kts 301°
2026-04-21 17:42 55.39123 -2.77658 15454 ft 367 kts 301°
2026-04-21 17:42 55.40371 -2.81570 15007 ft 365 kts 301°
2026-04-21 17:42 55.41612 -2.85460 14545 ft 364 kts 301°
2026-04-21 17:43 55.42858 -2.89377 13764 ft 371 kts 301°
2026-04-21 17:43 55.44130 -2.93377 12954 ft 377 kts 301°
2026-04-21 17:43 55.45404 -2.97389 12426 ft 367 kts 301°
2026-04-21 17:43 55.46745 -3.01109 12026 ft 357 kts 311°
2026-04-21 17:44 55.48333 -3.04447 11592 ft 353 kts 312°
2026-04-21 17:44 55.49873 -3.07717 11320 ft 346 kts 311°
2026-04-21 17:44 55.51379 -3.10940 11180 ft 335 kts 311°
2026-04-21 17:44 55.52842 -3.14083 11013 ft 325 kts 311°
2026-04-21 17:45 55.54255 -3.17124 10874 ft 316 kts 311°
2026-04-21 17:45 55.55630 -3.20088 10717 ft 307 kts 311°
2026-04-21 17:45 55.56971 -3.22985 10518 ft 301 kts 311°
2026-04-21 17:45 55.58291 -3.25838 10177 ft 300 kts 311°
2026-04-21 17:46 55.59610 -3.28694 9819 ft 299 kts 311°
2026-04-21 17:46 55.60926 -3.31544 9473 ft 298 kts 311°
2026-04-21 17:46 55.62232 -3.34379 9147 ft 296 kts 311°
2026-04-21 17:46 55.63531 -3.37201 8819 ft 295 kts 311°
2026-04-21 17:47 55.64826 -3.40020 8483 ft 294 kts 311°
2026-04-21 17:47 55.66112 -3.42818 8130 ft 294 kts 311°
2026-04-21 17:47 55.67419 -3.45666 7532 ft 302 kts 311°
2026-04-21 17:47 55.68751 -3.48572 6976 ft 301 kts 311°
2026-04-21 17:48 55.69615 -3.50461 6663 ft 295 kts 311°
2026-04-21 17:48 55.71288 -3.54119 6186 ft 281 kts 311°
2026-04-21 17:48 55.72500 -3.56775 5858 ft 271 kts 311°
2026-04-21 17:48 55.73651 -3.59298 5709 ft 255 kts 311°
2026-04-21 17:49 55.74740 -3.61689 5579 ft 244 kts 312°
2026-04-21 17:49 55.75788 -3.63991 5461 ft 237 kts 312°
2026-04-21 17:49 55.76809 -3.66236 5309 ft 230 kts 312°
2026-04-21 17:49 55.77801 -3.68415 5181 ft 224 kts 312°
2026-04-21 17:50 55.78805 -3.70544 5042 ft 225 kts 321°
2026-04-21 17:50 55.80089 -3.72066 4955 ft 223 kts 341°
2026-04-21 17:50 55.81576 -3.72992 4894 ft 224 kts 353°
2026-04-21 17:50 55.83069 -3.72873 4566 ft 213 kts 25°
2026-04-21 17:51 55.84251 -3.71460 4198 ft 207 kts 55°
2026-04-21 17:51 55.84815 -3.69213 4090 ft 188 kts 78°
2026-04-21 17:51 55.85187 -3.67049 3894 ft 180 kts 71°
2026-04-21 17:51 55.85689 -3.65039 3648 ft 176 kts 66°
2026-04-21 17:52 55.86256 -3.63125 3398 ft 171 kts 63°
2026-04-21 17:52 55.86830 -3.61346 3189 ft 167 kts 63°
2026-04-21 17:52 55.87423 -3.59565 2954 ft 167 kts 62°
2026-04-21 17:52 55.88020 -3.57797 2720 ft 165 kts 62°
2026-04-21 17:53 55.88602 -3.56083 2485 ft 158 kts 61°
2026-04-21 17:53 55.89158 -3.54448 2271 ft 151 kts 61°
2026-04-21 17:53 55.89690 -3.52881 2059 ft 144 kts 61°
2026-04-21 17:53 55.90204 -3.51367 1855 ft 142 kts 61°
2026-04-21 17:54 55.90689 -3.49937 1697 ft 129 kts 62°
2026-04-21 17:54 55.91147 -3.48593 1508 ft 125 kts 62°
2026-04-21 17:54 55.91596 -3.47273 1340 ft 124 kts 62°
2026-04-21 17:54 55.92037 -3.45955 1140 ft 124 kts 63°
2026-04-21 17:55 55.92472 -3.44592 963 ft 128 kts 60°
2026-04-21 17:55 55.92942 -3.43238 788 ft 131 kts 56°
2026-04-21 17:55 55.93436 -3.41877 585 ft 129 kts 61°
2026-04-21 17:55 55.93886 -3.40518 384 ft 126 kts 61°
2026-04-21 17:56 55.94332 -3.39213 207 ft 120 kts 60°
2026-04-21 17:56 55.94738 -3.38010 117 ft 102 kts 60°
2026-04-21 17:56 55.94988 -3.37277 115 ft 51 kts 58°
2026-04-21 17:56 55.95151 -3.36798 115 ft 42 kts 59°
2026-04-21 17:57 55.95252 -3.36497 113 ft 12 kts 67°
2026-04-21 17:57 55.95223 -3.36385 116 ft 8 kts 144°
2026-04-21 17:57 55.95174 -3.36330 115 ft 9 kts 148°
2026-04-21 17:57 55.95134 -3.36216 116 ft 13 kts 108°
2026-04-21 17:58 55.95102 -3.36044 118 ft 14 kts 108°
2026-04-21 17:58 55.95072 -3.35922 117 ft 6 kts 118°
2026-04-21 17:58 55.95046 -3.35846 116 ft 7 kts 133°
2026-04-21 17:58 55.95001 -3.35846 118 ft 9 kts 205°
2026-04-21 17:59 55.94947 -3.35855 119 ft 5 kts 159°
2026-04-21 17:59 55.94924 -3.35850 118 ft 2 kts 213°
2026-04-21 17:59 55.94912 -3.35894 117 ft 6 kts 250°
2026-04-21 17:59 55.94900 -3.35962 119 ft 5 kts 254°
2026-04-21 18:00 55.94895 -3.35995 115 ft 0 kts 255°